Regional Weather Roundup
Issued by NWS

Home | Current Version | Previous Version | Text Only | Print | Product List | Glossary On
Versions: 1 2 3 4 5 6 7 8 9 10 11 12 13 14 15 16 17 18 19 20 21 22 23 24 25 26 27 28 29 30 31 32 33 34 35 36 37 38 39 40 41 42 43 44 45 46 47 48 49 50
000
ASUS43 KDMX 162207
RWRIA

WEATHER ROUNDUP FOR IOWA
NATIONAL WEATHER SERVICE DES MOINES IA
500 PM CDT TUE SEP 16 2014

NOTE: "FAIR" INDICATES FEW OR NO CLOUDS BELOW 12,000 FEET WITH NO
SIGNIFICANT WEATHER AND/OR OBSTRUCTIONS TO VISIBILITY.

* - THESE STATIONS ARE NOT NWS STATIONS...THUS NOT UNDER NWS
QUALITY CONTROL.  THEY ALSO DO NOT REPORT WEATHER SUCH
AS PRECIPITATION OR FOG.

IAZ001>003-012>014-020>022-031>034-043>046-162300-
   NORTHWEST IOWA

CITY           SKY/WX    TMP DP  RH WIND       PRES   REMARKS
CARROLL *      SUNNY     66  46  48 S7        30.07F
CHEROKEE *     SUNNY     68  46  45 S9        30.06F
DENISON *      SUNNY     66  48  52 S7        30.05F
LE MARS *      SUNNY     68  48  49 S8G16     30.04F
ORANGE CITY *  SUNNY     70  45  40 S9        30.04F
SHELDON *      SUNNY     66  48  52 S10       30.04F
SIOUX CITY     SUNNY     70  48  45 VRB5      30.04F
SPENCER        SUNNY     67  45  45 S10       30.06F
STORM LAKE *   SUNNY     66  55  68 VRB6      30.07S
$$

IAZ055>058-069>071-079>083-090>094-162300-
   SOUTHWEST IOWA

CITY           SKY/WX    TMP DP  RH WIND       PRES   REMARKS
ATLANTIC *     SUNNY     66  48  52 S7G13     30.06F
AUDUBON *      SUNNY     66  45  45 S7        30.08F
CLARINDA *     SUNNY     70  48  46 S7        30.08F
COUNCIL BLFS * SUNNY     68  50  52 S7        30.05F
CRESTON *      SUNNY     64  48  55 S6G13     30.09F
HARLAN  *      SUNNY     66  50  55 S8        30.10F
LAMONI         SUNNY     66  48  52 VRB7      30.09F
SHENANDOAH *   SUNNY     70  48  46 S8        30.07F
$$

IAZ047>049-059>061-072>074-084-162300-
   CENTRAL IOWA

CITY           SKY/WX    TMP DP  RH WIND       PRES   REMARKS
AMES           SUNNY     65  46  50 S8        30.09F
ANKENY *       SUNNY     66  48  52 S8        30.09F
CHARITON *     SUNNY     66  48  52 CALM      30.09F
DES MOINES     SUNNY     67  47  48 S7        30.08F
GRINNELL*      SUNNY     64  43  45 SW5       30.10F
KNOXVILLE *    SUNNY     64  46  52 S6        30.09S
MARSHALLTOWN   SUNNY     65  45  48 VRB5      30.09F
PELLA *        SUNNY     68  48  49 S3        30.11F
PERRY *          N/A     68  46  45 S6        30.08F
$$

IAZ004>006-015-016-023>025-035-036-162300-
   NORTH CENTRAL IOWA

CITY           SKY/WX    TMP DP  RH WIND       PRES   REMARKS
ALGONA *       SUNNY     66  45  45 SW9       30.07F
CLARION *        N/A     66  43  42 S8        30.07F
ESTHERVILLE    SUNNY     66  45  46 SW10      30.06F
FORT DODGE *   SUNNY     66  45  45 S8        30.08F
MASON CITY     SUNNY     66  45  46 SW12      30.09F
FOREST CITY *  SUNNY     64  43  45 S5        30.07F
IOWA FALLS *     N/A     66  41  39 S5        30.09F
$$

IAZ007>011-017>019-026>030-037>042-050>054-066-162300-
   NORTHEAST IOWA

CITY           SKY/WX    TMP DP  RH WIND       PRES   REMARKS
CEDAR RAPIDS   SUNNY     65  45  48 SW7       30.10F
CHARLES CITY * SUNNY     66  39  37 SW6       30.09F
CLINTON *      SUNNY     66  41  39 W5        30.13F
DECORAH *      SUNNY     64  43  45 CALM      30.09S
DUBUQUE        SUNNY     64  42  44 W5        30.11F
MONTICELLO *   SUNNY     66  45  45 W5        30.10F
OELWEIN *      SUNNY     66  43  42 W7        30.10F
WATERLOO       SUNNY     66  42  41 VRB6      30.09F
$$

IAZ064-065-067-068-078-162300-
   EAST CENTRAL IOWA

CITY           SKY/WX    TMP DP  RH WIND       PRES   REMARKS
DAVENPORT      SUNNY     65  41  41 VRB6      30.11F
IOWA CITY      SUNNY     66  47  50 CALM      30.12F
MT. PLEASANT * SUNNY     70  43  37 CALM      30.11F
MUSCATINE *    SUNNY     68  43  40 S5        30.11F
QUAD CITIES    SUNNY     68  44  42 CALM      30.11F
$$

IAZ062-063-075>077-085>089-095>099-162300-
   SOUTHEAST IOWA

CITY           SKY/WX    TMP DP  RH WIND       PRES   REMARKS
BURLINGTON     LGT RAIN  66  46  48 S3        30.11F
FAIRFIELD *    SUNNY     66  43  42 VRB5G12   30.11F
FORT MADISON * SUNNY     68  45  42 CALM      30.12F
KEOKUK *       SUNNY     66  48  52 SE3       30.10F
OSKALOOSA *      N/A     66  48  52 CALM      30.11F
CENTERVILLE *  SUNNY     64  48  55 CALM      30.12F
OTTUMWA        SUNNY     65  46  50 S6        30.10F
WASHINGTON *   SUNNY     66  46  48 VRB5      30.11F
$$

ABBREVIATIONS USED IN REMARKS
   TC - TEMPERATURES IN CELSIUS
  WCI - WIND CHILL INDEX
   HX - HEAT INDEX
  VSB - VISIBILITY
$$




USA.gov is the U.S. government's official web portal to all federal, state and local government web resources and services.